+ View the NASA Portal
+ Center for Near-Earth Object Studies
IMPORTANT:
The SSD Announcement email list is now available. Major changes are coming in the near future, including possible hostname and/or URL changes. To be notified of such changes, subscribe to this email list.
Please visit
this page
for more details.
Don't show this message again
JPL Small-Body Database Browser
Search:
[
help
]
226084 (2002 LB34)
Classification:
Main-belt Asteroid
SPK-ID:
2226084
[
Ephemeris
|
Orbit Diagram
|
Orbital Elements
|
Mission Design
|
Physical Parameters
|
Discovery Circumstances
|
Close-Approach Data
]
[ show orbit diagram ]
Orbital Elements at Epoch 2458600.5 (2019-Apr-27.0) TDB
Reference:
JPL 16
(heliocentric ecliptic J2000)
Element
Value
Uncertainty (1-sigma)
Units
e
.01482697169317203
5.4026e-08
a
2.999082170597015
4.8123e-08
au
q
2.954614864148077
1.7017e-07
au
i
13.8585718817765
5.9468e-06
deg
node
89.54802108534416
2.6024e-05
deg
peri
344.6365338337209
0.00021632
deg
M
267.3980954079635
0.00021216
deg
t
p
2459088.475921313490
(2020-Aug-26.97592131)
0.0011149
TDB
period
1897.059595553543
5.19
4.566e-05
1.25e-07
d
yr
n
.1897673646330313
4.5674e-09
deg/d
Q
3.043549477045954
4.8836e-08
au
Orbit Determination Parameters
# obs. used (total)
291
data-arc span
6371 days (17.44 yr)
first obs. used
2002-05-23
last obs. used
2019-11-01
planetary ephem.
DE431
SB-pert. ephem.
SB431-N16
condition code
0
norm. resid. RMS
.55264
source
ORB
producer
Otto Matic
solution date
2019-Nov-08 00:49:24
Additional Information
Earth MOID
= 1.97165 au
Jupiter MOID
= 2.10939 au
T_jup
= 3.209
[ show covariance matrix ]
[
Ephemeris
|
Orbit Diagram
|
Orbital Elements
|
Mission Design
|
Physical Parameters
|
Discovery Circumstances
|
Close-Approach Data
]
Physical Parameter Table
Parameter
Symbol
Value
Units
Sigma
Reference
Notes
absolute magnitude
H
15.2
n/a
MPO454622
226084 (2002 LB34)
Discovered 2002-Jun-09 by LINEAR at Socorro
Reference:
20091202/Numbers.arc
Last Updated:
2009-12-04
[ show close-approach data ]
[
Ephemeris
|
Orbit Diagram
|
Orbital Elements
|
Mission Design
|
Physical Parameters
|
Discovery Circumstances
|
Close-Approach Data
]
2019-Dec-08 16:13 UT
(server date/time)
Site Manager:
Ryan S. Park
Webmaster
:
Alan B. Chamberlin